Regional Weather Roundup
Issued by NWS

Home | Current Version | Previous Version | Graphics & Text | Print | Product List | Glossary On
Versions: 1 2 3 4 5 6 7 8 9 10 11 12 13 14 15 16 17 18 19 20 21 22 23 24 25 26 27 28 29 30 31 32 33 34 35 36 37 38 39 40 41 42 43 44 45 46 47 48 49 50
000
ASUS43 KIND 311459
RWRIN

WEATHER ROUNDUP FOR INDIANA
NATIONAL WEATHER SERVICE INDIANAPOLIS IN
1100 AM EDT FRI JUL 31 2015

NOTE: "FAIR" INDICATES FEW OR NO CLOUDS BELOW 12,000 FEET WITH NO
SIGNIFICANT WEATHER AND/OR OBSTRUCTIONS TO VISIBILITY.

* - STATION DOES NOT REPORT WEATHER SUCH AS PRECIPITATION OR FOG.

+ - STATION NOT QUALITY CONTROLLED BY THE NATIONAL WEATHER SERVICE.
    USE DATA WITH CAUTION...ESPECIALLY DEWPOINT AND RELATIVE
    HUMIDITY OBSERVATIONS.

INZ001>003-010>013-019-020-311600-
NORTHWEST INDIANA

CITY           SKY/WX    TMP DP  RH WIND       PRES   REMARKS
GARY /AIRPORT/ MOSUNNY   79  64  61 SW7       30.01F
KNOX *+        CLOUDY    77  61  57 W9        30.03R
MONTICELLO +   SUNNY     79  66  64 W6        30.04F
RENSSELAER +   SUNNY     79  70  73 W8        30.05F

$$

LMZ046-743>745-311600-
SOUTHERN LAKE MICHIGAN

STATION/POSITION TIME  TEMP    WIND        PRES    WAVE
                       AIR SEA DIR/SP/G            HT
                 (UTC) (F)     (DEG/KT/KT) (MB)    (FT)
BURNS HARBOR     1400   75     250/ 12/ 13 1017.3S
MICHIGAN CITY    1400   74     220/ 15/ 16   N/A
5NW MICH CITY    1400   74 73  260/ 12/ 16   N/A     2

$$

INZ004-005-014>016-021>024-311600-
NORTH CENTRAL INDIANA

CITY           SKY/WX    TMP DP  RH WIND       PRES   REMARKS
ELKHART        PTSUNNY   81  63  54 W9        30.01F
GOSHEN         SUNNY     80  64  58 W15       30.01F
SOUTH BEND     CLOUDY    80  61  52 W12       30.02F
WARSAW +       SUNNY     79  63  57 W9        30.02F

$$

INZ006>009-017-018-025>027-311600-
NORTHEAST INDIANA

CITY           SKY/WX    TMP DP  RH WIND       PRES   REMARKS
ANGOLA *+      SUNNY     81  66  61 W8        30.00F
FORT WAYNE     SUNNY     80  62  54 W8        30.03F

$$

INZ028-029-035-036-043>045-051>053-311600-
WEST CENTRAL INDIANA

CITY           SKY/WX    TMP DP  RH WIND       PRES   REMARKS
CRAWFORDSVL +  SUNNY     76  62  61 W5          N/A
GREENCASTLE +  SUNNY     79  57  47 CALM      30.09S
LAFAYETTE      SUNNY     79  66  64 VRB5      30.05F
TERRE HAUTE    SUNNY     83  62  49 N3        30.09S

$$

INZ030>032-037>040-046>048-054>057-064-065-311600-
CENTRAL INDIANA

CITY           SKY/WX    TMP DP  RH WIND       PRES   REMARKS
ANDERSON       SUNNY     79  57  47 W12       30.06F
FRANKFORT +    SUNNY     80  68  67 SW7       30.08F
INDIANAPOLIS   SUNNY     82  59  45 VRB6      30.06F
-EAGLE CREEK   SUNNY     81  62  52 N5        30.07F
KOKOMO *+      SUNNY     81  64  57 W9        30.05F
MT COMFORT *+  SUNNY     81  55  41 NW6       30.07F
SHELBYVILLE    SUNNY     81  66  60 VRB5      30.07S

$$

INZ033-034-041-042-049-050-058-059-311600-
EAST CENTRAL INDIANA

CITY           SKY/WX    TMP DP  RH WIND       PRES   REMARKS
MUNCIE         SUNNY     77  63  61 NW8       30.05F

$$

INZ060-061-067>069-081>083-085>088-311600-
SOUTHWEST INDIANA

CITY           SKY/WX    TMP DP  RH WIND       PRES   REMARKS
EVANSVILLE     SUNNY     83  67  58 N7        30.10S
HUNTINGBURG *+ SUNNY     81  68  65 N5        30.10S

$$

INZ062-063-066-070>080-084-089>092-311600-
SOUTH CENTRAL AND SOUTHEAST INDIANA

CITY           SKY/WX    TMP DP  RH WIND       PRES   REMARKS
BLOOMINGTON    SUNNY     81  64  56 VRB3      30.09S
SEYMOUR +      SUNNY     82  64  54 N3        30.08S

$$




USA.gov is the U.S. government's official web portal to all federal, state and local government web resources and services.